This is the latest recevied weather packets stored in our database for station/object K7AEL. If no packets are shown the sender has not sent any weather packets the latest 1 day(s).
| Time | Temp. | Humidity | Pressure | Rain* | Wind** | Luminosity | Snow |
|---|---|---|---|---|---|---|---|
| 1778027424 | 23.89° C | 30% | 1011.2 hPa | 0 mm | 1.34 m/s, 176° | 161 W/m² | - |
| 1778027120 | 23.89° C | 29% | 1011.2 hPa | 0 mm | 1.34 m/s, 280° | 162 W/m² | - |
| 1778026816 | 24.44° C | 29% | 1011.2 hPa | 0 mm | 2.24 m/s, 195° | 170 W/m² | - |
| 1778026513 | 24.44° C | 28% | 1011.3 hPa | 0 mm | 1.34 m/s, 235° | 181 W/m² | - |
| 1778026210 | 24.44° C | 27% | 1011 hPa | 0 mm | 1.79 m/s, 190° | 200 W/m² | - |
| 1778025908 | 25° C | 27% | 1011 hPa | 0 mm | 3.58 m/s, 309° | 211 W/m² | - |
| 1778025605 | 25° C | 28% | 1010.9 hPa | 0 mm | 1.34 m/s, 298° | 225 W/m² | - |
| 1778025303 | 25° C | 28% | 1010.9 hPa | 0 mm | 1.34 m/s, 282° | 243 W/m² | - |
| 1778024999 | 24.44° C | 27% | 1011 hPa | 0 mm | 0.89 m/s, 221° | 265 W/m² | - |
| 1778024696 | 25° C | 27% | 1011 hPa | 0 mm | 3.13 m/s, 193° | 277 W/m² | - |
| 1778024393 | 25° C | 27% | 1010.9 hPa | 0 mm | 0.45 m/s, 262° | 291 W/m² | - |
| 1778024091 | 25.56° C | 27% | 1010.8 hPa | 0 mm | 1.34 m/s, 183° | 309 W/m² | - |
| 1778023788 | 25.56° C | 26% | 1010.7 hPa | 0 mm | 0.89 m/s, 216° | 326 W/m² | - |
| 1778023486 | 26.11° C | 26% | 1010.9 hPa | 0 mm | 3.13 m/s, 284° | 341 W/m² | - |
| 1778023182 | 25.56° C | 25% | 1010.9 hPa | 0 mm | 1.79 m/s, 194° | 369 W/m² | - |
| 1778022880 | 25.56° C | 27% | 1010.6 hPa | 0 mm | 1.79 m/s, 291° | 386 W/m² | - |
| 1778022578 | 25.56° C | 27% | 1010.9 hPa | 0 mm | 1.79 m/s, 177° | 397 W/m² | - |
| 1778022276 | 25.56° C | 28% | 1010.9 hPa | 0 mm | 1.79 m/s, 178° | 426 W/m² | - |
| 1778021972 | 25.56° C | 29% | 1010.8 hPa | 0 mm | 4.02 m/s, 269° | 450 W/m² | - |
| 1778021669 | 25° C | 29% | 1010.8 hPa | 0 mm | 2.24 m/s, 219° | 492 W/m² | - |
| 1778021365 | 25.56° C | 29% | 1010.8 hPa | 0 mm | 3.13 m/s, 343° | 501 W/m² | - |
| 1778021062 | 26.11° C | 28% | 1010.9 hPa | 0 mm | 0.89 m/s, 238° | 510 W/m² | - |
| 1778020759 | 25.56° C | 29% | 1011 hPa | 0 mm | 1.34 m/s, 268° | 519 W/m² | - |
| 1778020456 | 24.44° C | 29% | 1011 hPa | 0 mm | 1.79 m/s, 274° | 525 W/m² | - |
| 1778020152 | 24.44° C | 30% | 1011.2 hPa | 0 mm | 2.68 m/s, 210° | 132 W/m² | - |
* Rain latest hour (hover to see other rain measurements)
** Current wind speed in m/s (hover to see current wind gust speed)